Weather Roundup
Issued by NWS Chicago, IL

Home | Current Version | Previous Version | Graphics & Text | Print | Product List | Glossary On
Versions: 1 2 3 4 5 6 7 8 9 10 11 12 13 14 15 16 17 18 19 20 21 22 23 24 25 26 27 28 29 30 31 32 33 34 35 36 37 38 39 40 41 42 43 44 45 46 47 48 49 50
000
NZUS59 KLOT 110403
HRRLOT

CHICAGO AREA WEATHER ROUNDUP
NATIONAL WEATHER SERVICE CHICAGO/ROMEOVILLE IL
1000 PM CST WED FEB 10 2016

NOTE: "FAIR" INDICATES FEW OR NO CLOUDS BELOW 12,000 FEET WITH NO
SIGNIFICANT WEATHER AND/OR OBSTRUCTIONS TO VISIBILITY.

* THESE STATIONS ARE NOT UNDER NWS QUALITY CONTROL. THEY ALSO MAY NOT
  REPORT WEATHER SUCH AS PRECIPITATION OR FOG.

ILZ005-006-012>014-019>023-110500-
NORTHEAST ILLINOIS

CITY           SKY/WX    TMP DP  RH WIND       PRES   REMARKS
OHARE          PTCLDY    11   1  64 NW5       30.16R WCI   3
MIDWAY         PTCLDY    13   0  56 NW10      30.17R WCI   0
AURORA         CLEAR     10   4  76 N5        30.17R WCI   2
LANSING*       MOCLDY    14   2  57 N8        30.16S WCI   3
WAUKEGAN       CLEAR      7   0  73 W5        30.15R WCI  -2
DUPAGE AIRPORT PTCLDY     8  -2  63 N3        30.16R
WHEELING       CLEAR     10   1  67 NW6       30.18R WCI   0
MORRIS*        CLEAR     11   4  75 CALM      30.15R
$$

WIZ051-052-058>065-066-070>072-110500-
SOUTHEAST WISCONSIN

CITY           SKY/WX    TMP DP  RH WIND       PRES   REMARKS
MILWAUKEE      PTCLDY    10  -2  58 NW8       30.15R WCI  -2
KENOSHA*       CLEAR      5  -1  76 W5        30.15R WCI  -4
RACINE*        CLEAR      8  -3  61 W5        30.16R WCI   0
BURLINGTON     CLEAR      1  -4  81 W5        30.15R WCI  -9
$$

INZ001>003-010>013-019-020-110500-
NORTHWEST INDIANA

CITY           SKY/WX    TMP DP  RH WIND       PRES   REMARKS
GARY*          CLOUDY    17   2  52 W9        30.16R WCI   5
MICHIGAN CITY* NOT AVBL
RENSSELAER*    NOT AVBL
VALPARAISO     LGT SNOW  15   8  73 W10       30.13R WCI   2
$$

LMZ740>746-110500-
SOUTHERN LAKE MICHIGAN

STATION/POSITION TIME  SKY/WX   TEMP WIND        PRES    VSBY
                                AIR  DIR/SP/G
                 (UTC)          (F)  (DEG/KT/KT) (MB)    (MI)
HARRISON CRIB    0300            15  310/ 12/ 13   N/A
BURNHAM HARBOR   0400            14  300/  7/ 12   N/A
CALUMET HARBOR   0300            14              1020.3
BURNS HARBOR     0301            18  310/ 12/ 18 1020.7R
MICHIGAN CITY    0300            17  280/ 11/ 14   N/A
$$

ABBREVIATIONS USED IN REMARKS
   TC - TEMPERATURE IN CELSIUS
  WCI - WIND CHILL INDEX
   HX - HEAT INDEX
  VSB - VISIBILITY
$$



USA.gov is the U.S. government's official web portal to all federal, state and local government web resources and services.